Location: Newark
(51.5100°N, 0.1300°W)
Time: 14:15:06
(UTC+00:00)

Envisat - Visible Passes

Search period start: 07 December 2019 00:00
Search period end: 17 December 2019 00:00
Orbit: 764 x 766 km, 98.1° (Epoch: 07 December)

Date Brightness Start Highest point End Pass type
(mag) Time Alt. Az. Time Alt. Az. Time Alt. Az.
07 Dec 4.2 06:31:07 10° NNE 06:36:02 47° E 06:40:55 10° S visible
07 Dec 3.0 17:50:53 10° SSE 17:55:58 82° WSW 18:01:06 10° NNW visible
07 Dec 6.0 19:33:22 10° WSW 19:35:50 13° W 19:38:18 10° NW visible
08 Dec 5.4 05:54:51 10° NE 05:58:58 24° E 06:03:04 10° SE visible
08 Dec 3.1 17:14:21 10° SE 17:19:16 53° ENE 17:24:13 10° N visible
08 Dec 5.1 18:54:20 10° SSW 18:58:35 26° W 19:02:51 10° NW visible
09 Dec 6.2 05:19:39 10° ENE 05:21:42 12° E 05:23:42 10° ESE visible
09 Dec 3.3 06:56:30 10° NNE 07:01:37 75° ESE 07:06:42 10° S visible
09 Dec 3.8 16:38:25 10° ESE 16:42:44 29° ENE 16:47:03 10° N visible
09 Dec 3.8 18:16:36 10° S 18:21:32 51° W 18:26:30 10° NNW visible
10 Dec 4.6 06:19:56 10° NNE 06:24:41 38° E 06:29:25 10° SSE visible
10 Dec 2.9 17:39:36 10° SSE 17:44:42 83° ENE 17:49:49 10° NNW visible
10 Dec 5.8 19:21:12 10° SW 19:24:23 17° W 19:27:36 10° NW visible
11 Dec 5.7 05:43:51 10° NE 05:47:34 20° E 05:51:15 10° SE visible
11 Dec 3.3 17:03:14 10° SE 17:08:02 44° ENE 17:12:50 10° N visible
11 Dec 4.8 18:42:41 10° SSW 18:47:12 32° W 18:51:45 10° NNW visible
12 Dec 3.6 06:45:15 10° NNE 06:50:19 62° ESE 06:55:20 10° S visible
12 Dec 4.0 16:27:31 10° ESE 16:31:33 24° ENE 16:35:36 10° N visible
12 Dec 3.5 18:05:11 10° S 18:10:12 62° WSW 18:15:17 10° NNW visible
13 Dec 5.0 06:08:47 10° NNE 06:13:20 31° E 06:17:50 10° SSE visible
13 Dec 2.9 17:28:22 10° SSE 17:33:25 69° ENE 17:38:30 10° N visible
13 Dec 5.5 19:09:15 10° SW 19:12:58 20° W 19:16:42 10° NW visible
14 Dec 6.0 05:32:57 10° NE 05:36:07 16° E 05:39:18 10° SE visible
14 Dec 3.0 07:10:43 10° NNE 07:15:50 84° WNW 07:20:56 10° SSW visible
14 Dec 3.5 16:52:12 10° SE 16:56:49 36° ENE 17:01:27 10° N visible
14 Dec 4.4 18:31:07 10° SSW 18:35:50 39° W 18:40:36 10° NNW visible
15 Dec 4.0 06:34:01 10° NNE 06:38:59 50° E 06:43:55 10° S visible
15 Dec 3.1 17:53:50 10° S 17:58:54 76° WSW 18:04:01 10° NNW visible
15 Dec 6.1 19:36:45 10° WSW 19:38:50 12° W 19:40:54 10° WNW visible
16 Dec 5.3 05:57:41 10° NE 06:01:56 26° E 06:06:10 10° SSE visible
16 Dec 3.0 17:17:13 10° SSE 17:22:11 57° ENE 17:27:10 10° N visible
16 Dec 5.2 18:57:27 10° SW 19:01:34 24° W 19:05:41 10° NW visible
